This demonstration page uses our WeatherBlox Daily Observations layout. Learn more.

Hourly Observations for August 7, 2016

Temp ( °F °C ) Dew Point ( °F °C ) Humidity (%) Winds ( mph kmh ) Pressure ( in mb ) Visibility ( mi km ) Precip ( " mm )
12:15 am 00:15 Cloudy 67 19.3 60 15.6 79 79 E 8 13 30 1016 10 16.09344 0 0
12:35 am 00:35 Cloudy 67 19.2 60 15.7 80 80 E 8 13 30 1016 10 16.09344 0 0
12:55 am 00:55 Cloudy 66 19.1 60 15.7 81 81 E 8 13 30 1016 10 16.09344 0 0
1:15 am 01:15 Cloudy 66 19 60 15.6 81 81 ENE 5 7 30 1016 10 16.09344 0 0
1:35 am 01:35 Cloudy 66 18.7 60 15.7 83 83 E 6 9 30 1016 10 16.09344 0 0
1:55 am 01:55 Cloudy 66 18.7 60 15.6 82 82 E 5 7 30 1016 10 16.09344 0 0
2:15 am 02:15 Cloudy 66 18.7 60 15.7 83 83 E 6 9 30 1016 10 16.09344 0 0
2:35 am 02:35 Cloudy 65 18.6 60 15.7 83 83 E 6 9 30 1016 10 16.09344 0 0
2:55 am 02:55 Cloudy with Light Rain 65 18.6 60 15.8 84 84 E 5 7 30 1016 10 16.09344 0 0
3:15 am 03:15 Cloudy with Light Rain 65 18.2 61 16.1 88 88 E 7 11 30 1016 10 16.09344 0 0
3:35 am 03:35 Cloudy with Light Rain 65 18.1 61 16.1 88 88 ESE 7 11 30 1016 10 16.09344 0 0
3:55 am 03:55 Cloudy with Light Rain 64 18 61 16.2 89 89 ESE 7 11 30 1016 10 16.09344 0 0
4:15 am 04:15 Cloudy with Light Rain 64 18 61 16.3 90 90 ESE 7 11 30 1016 10 16.09344 0 0
4:35 am 04:35 Cloudy with Light Rain 64 18 61 16.3 90 90 ESE 8 13 30 1016 10 16.09344 0 0
4:55 am 04:55 Cloudy with Light Rain 64 17.8 62 16.5 92 92 ESE 8 13 30 1016 10 16.09344 0.01 0.254
5:15 am 05:15 Cloudy with Light Drizzle 64 17.8 62 16.5 92 92 ESE 8 13 30 1016 10 16.09344 0 0
5:35 am 05:35 Cloudy with Light Drizzle 64 17.7 62 16.5 93 93 E 9 15 30 1016 10 16.09344 0 0
5:55 am 05:55 Cloudy with Light Drizzle 64 17.6 62 16.5 93 93 E 8 13 30 1016 10 16.09344 0 0
6:15 am 06:15 Cloudy with Light Drizzle 64 17.6 62 16.5 93 93 E 7 11 30 1016 10 16.09344 0 0
6:35 am 06:35 Cloudy 64 17.5 62 16.5 94 94 ESE 7 11 30 1016 10 16.09344 0 0
6:55 am 06:55 Cloudy with Drizzle 64 17.5 62 16.6 95 95 ESE 8 13 30 1016 7 11.265408 0.01 0.254
7:15 am 07:15 Cloudy with Light Drizzle 64 17.5 62 16.7 95 95 ESE 10 17 30 1016 4 6.437376 0.01 0.254
7:35 am 07:35 Cloudy with Light Drizzle 64 17.5 62 16.7 95 95 E 9 15 30 1016 2.5 4.02336 0.01 0.254
7:55 am 07:55 Cloudy with Mist and Fog 64 17.6 62 16.8 95 95 E 9 15 30 1016 4 6.437376 0.02 0.508
8:15 am 08:15 Cloudy 64 17.6 62 16.8 95 95 E 10 17 30 1016 10 16.09344 0 0
8:35 am 08:35 Cloudy 64 17.7 62 16.8 95 95 E 10 17 30 1016 10 16.09344 0 0
8:55 am 08:55 Cloudy 64 17.7 62 16.7 94 94 E 13 20 30 1016 10 16.09344 0 0
9:15 am 09:15 Cloudy 64 18 62 16.7 92 92 E 10 17 30 1016 10 16.09344 0 0
9:35 am 09:35 Cloudy 65 18.2 62 16.6 90 90 E 12 19 30 1016 10 16.09344 0 0
9:55 am 09:55 Cloudy 65 18.1 61 16 88 88 E 12 19 30 1016 10 16.09344 0 0
10:15 am 10:15 Cloudy 65 18.1 60 15.8 87 87 E 9 15 30.03 1017 10 16.09344 0 0
10:35 am 10:35 Cloudy 65 18.4 60 15.7 84 84 E 9 15 30.03 1017 10 16.09344 0 0
10:55 am 10:55 Cloudy 66 19 60 15.3 79 79 E 12 19 30.03 1017 10 16.09344 0 0
11:15 am 11:15 Cloudy 67 19.4 60 15.7 79 79 E 9 15 30.03 1017 10 16.09344 0 0
11:35 am 11:35 Cloudy 67 19.5 61 16 80 80 E 12 19 30.03 1017 10 16.09344 0 0
11:55 am 11:55 Cloudy 68 20 61 16.3 79 79 ESE 10 17 30.03 1017 10 16.09344 0 0
12:15 pm 12:15 Cloudy 69 20.5 62 16.6 78 78 ESE 8 13 30 1016 10 16.09344 0 0
12:35 pm 12:35 Cloudy 70 21 62 16.6 76 76 E 8 13 30 1016 10 16.09344 0 0
12:55 pm 12:55 Cloudy 71 21.5 62 16.5 73 73 E 10 17 30 1016 10 16.09344 0 0
1:15 pm 13:15 Cloudy 71 21.7 61 16.3 72 72 E 12 19 29.97 1015 10 16.09344 0 0
1:35 pm 13:35 Cloudy 70 21 62 16.6 76 76 SE 12 19 29.97 1015 10 16.09344 0 0
1:55 pm 13:55 Cloudy 70 21 62 16.5 76 76 SE 12 19 29.97 1015 10 16.09344 0 0
2:15 pm 14:15 Cloudy 70 20.9 62 16.6 77 77 SSE 8 13 30 1016 10 16.09344 0 0
2:35 pm 14:35 Cloudy 71 21.7 62 16.7 73 73 SE 10 17 29.97 1015 10 16.09344 0 0
2:55 pm 14:55 Cloudy 71 21.7 62 16.8 74 74 ESE 10 17 29.97 1015 10 16.09344 0 0
3:15 pm 15:15 Cloudy 71 21.5 62 16.9 75 75 SE 10 17 29.97 1015 10 16.09344 0 0
3:35 pm 15:35 Cloudy 71 21.7 62 16.9 74 74 SE 10 17 29.97 1015 10 16.09344 0 0
3:55 pm 15:55 Cloudy 71 21.4 62 16.9 76 76 ESE 12 19 29.97 1015 10 16.09344 0 0
4:15 pm 16:15 Cloudy 71 21.5 63 17 76 76 ESE 8 13 29.97 1015 10 16.09344 0 0
4:35 pm 16:35 Cloudy 71 21.7 63 17.2 76 76 SE 9 15 29.97 1015 10 16.09344 0 0
4:55 pm 16:55 Mostly Cloudy 72 22.2 63 17.2 73 73 ESE 8 13 29.97 1015 10 16.09344 0 0
5:15 pm 17:15 Mostly Cloudy 71 21.6 63 17.1 76 76 E 8 13 29.97 1015 10 16.09344 0 0
5:35 pm 17:35 Cloudy 71 21.7 63 17.3 76 76 ESE 12 19 29.94 1014 10 16.09344 0 0
5:55 pm 17:55 Cloudy 70 21 63 17.2 79 79 E 10 17 29.94 1014 10 16.09344 0 0
6:15 pm 18:15 Cloudy 70 21 63 17 78 78 ESE 8 13 29.94 1014 10 16.09344 0 0
6:35 pm 18:35 Cloudy 70 21 63 17.1 79 79 E 9 15 29.94 1014 10 16.09344 0 0
6:55 pm 18:55 Cloudy 70 21 63 17.2 79 79 E 7 11 29.94 1014 10 16.09344 0 0
7:15 pm 19:15 Cloudy 70 21 63 17.2 79 79 E 7 11 29.94 1014 10 16.09344 0 0
7:35 pm 19:35 Cloudy 70 21 63 17.1 79 79 ESE 7 11 29.94 1014 10 16.09344 0 0
7:55 pm 19:55 Cloudy 69 20.8 63 17.3 80 80 ESE 6 9 29.94 1014 10 16.09344 0 0
8:15 pm 20:15 Cloudy 69 20.6 63 17.3 81 81 ESE 6 9 29.94 1014 10 16.09344 0 0
8:35 pm 20:35 Cloudy 68 20.2 63 17.3 84 84 ESE 5 7 29.94 1014 10 16.09344 0 0
8:55 pm 20:55 Cloudy 68 20.1 63 17.4 85 85 ESE 5 7 29.94 1014 10 16.09344 0 0
9:15 pm 21:15 Cloudy 68 20 64 17.5 86 86 E 6 9 29.94 1014 10 16.09344 0 0
9:35 pm 21:35 Cloudy 68 20 63 17.2 84 84 ESE 6 9 30 1016 10 16.09344 0 0
9:55 pm 21:55 Cloudy 68 20 63 17.2 84 84 ESE 3 6 29.94 1014 10 16.09344 0 0
10:15 pm 22:15 Cloudy 67 19.7 63 17.2 86 86 ESE 5 7 29.97 1015 10 16.09344 0 0
10:35 pm 22:35 Cloudy 67 19.5 63 17.3 87 87 ESE 3 6 30 1016 10 16.09344 0 0
10:55 pm 22:55 Cloudy 67 19.5 63 17.3 87 87 ESE 5 7 29.97 1015 10 16.09344 0 0
11:15 pm 23:15 Cloudy 67 19.3 63 17.3 88 88 ESE 5 7 29.97 1015 10 16.09344 0 0
11:35 pm 23:35 Cloudy 67 19.5 63 17.3 87 87 SE 5 7 29.97 1015 10 16.09344 0 0
11:55 pm 23:55 Cloudy 67 19.3 63 17.2 88 88 ESE 5 7 29.97 1015 10 16.09344 0 0

Powered by AerisWeather